User: anonymous   Login
Location: Strawberry
(45.6646°N, 111.9596°W)
Time: 10:24:50
(UTC+00:00)
Language:

FALCONSAT 3 - Orbit

View from above orbital plane
View from above orbital plane
View from above satellite
View from above satellite

Ground track
Ground track

The orbit data is extracted from the following two-line orbital elements,

1 30776U 07006E   22333.82360491  .00128860  00000-0  80882-3 0  9996
2 30776  35.4252 244.2646 0008472 270.4020  89.5748 15.75337843875445
Epoch (UTC): 29 November 2022 19:45:59
Eccentricity: 0.0008472
inclination: 35.4252°
perigee height: 338 km
apogee height: 349 km
right ascension of ascending node: 244.2646°
argument of perigee: 270.4020°
revolutions per day: 15.75337843
mean anomaly at epoch: 89.5748°
orbit number at epoch: 87544

The dashed part of the orbit path shows where the satellite is in the earth's shadow,  

DLR